Regional Weather Roundup
Issued by NWS Charleston, SC

Current Version | Previous Version | Graphics & Text | Print | Product List | Glossary On
Versions: 1 2 3 4 5 6 7 8 9 10 11 12 13 14 15 16 17 18 19 20 21 22 23 24 25 26 27 28 29 30 31 32 33 34 35 36 37 38 39 40 41 42 43 44 45 46 47 48 49 50
000
ASUS42 KCHS 111213
RWRCHS

REGIONAL WEATHER ROUNDUP
NATIONAL WEATHER SERVICE CHARLESTON SC
700 AM EST THU FEB 11 2016

NOTE: "FAIR" INDICATES FEW OR NO CLOUDS BELOW 12,000 FEET WITH NO
SIGNIFICANT WEATHER AND/OR OBSTRUCTIONS TO VISIBILITY.

NOT ALL STATIONS ARE QUALITY CONTROLLED BY THE NATIONAL
WEATHER SERVICE. USE DATA WITH CAUTION...ESPECIALLY
DEWPOINT OBSERVATIONS.

SCZ027-030-031-034>040-042>050-111300-
...SOUTHEAST SOUTH CAROLINA...

CITY           SKY/WX    TMP DP  RH WIND       PRES   REMARKS
N CHARLESTON   CLEAR     27  18  69 SW6       30.25R WCI  20
6HR MIN TEMP:  26; 6HR MAX TEMP:  34;

WATERFRONT PRK   N/A     33  22  63 SW6       30.08R WCI  28
MOUNT PLEASANT FAIR      32  21  64 SW5       30.25R WCI  27
JOHNS ISLAND   FAIR      32  18  55 SW6       30.26R WCI  26
PINOPOLIS        N/A     34  19  55 W10       30.12R WCI  26
MONCKS CORNER  FAIR      25  16  68 CALM      30.23R
SUMMERVILLE    FAIR      30  23  74 CALM      30.25R
BEAUFORT MCAS  CLEAR     30  22  72 SW6       30.27R WCI  24
6HR MIN TEMP:  28; 6HR MAX TEMP:  38;

BEAUFORT ARPT  FAIR      32  23  69 SW6       30.27R WCI  26
HILTON HEAD IS CLEAR     32  23  69 SW3       30.28R
WALTERBORO     SUNNY     30  21  69 SW6       30.27R WCI  24
ALLENDALE      FAIR      30  18  59 CALM      30.24R

...SOUTHERN MIDLANDS AND PEE DEE...

CITY           SKY/WX    TMP DP  RH WIND       PRES   REMARKS
GEORGETOWN     FAIR      28  19  69 CALM      30.23R
KINGSTREE      FAIR      23  19  86 CALM      30.22R
ORANGEBURG     CLEAR     26  18  71 SW3       30.22R
6HR MIN TEMP:  25; 6HR MAX TEMP:  32;

BARNWELL       FAIR      30  19  64 CALM      30.24R
AIKEN          FAIR      25  16  68 SW3       30.23R
MANNING        FAIR      27  19  74 CALM      30.23R
COLUMBIA       CLEAR     28  15  58 W5        30.20R WCI  23
6HR MIN TEMP:  27; 6HR MAX TEMP:  32;

SUMTER         CLEAR     28  15  57 W3        30.18R
6HR MIN TEMP:  27; 6HR MAX TEMP:  29;

FLORENCE       PTCLDY    23  16  74 W3        30.21R
6HR MIN TEMP:  23; 6HR MAX TEMP:  28;

MYRTLE BEACH   CLEAR     28  12  50 NW6       30.23R WCI  22
N MYRTLE BEACH CLEAR     28  18  66 NW3       30.20R
6HR MIN TEMP:  28; 6HR MAX TEMP:  32;


$$

GAZ063-065-086>088-099>101-113>116-118-119-134>141-150-111300-
...SOUTHEAST GEORGIA...

CITY           SKY/WX    TMP DP  RH WIND       PRES   REMARKS
SAVANNAH ARPT  PTCLDY    31  19  61 SW3       30.28R
6HR MIN TEMP:  30; 6HR MAX TEMP:  33;

HUNTER AAF     CLEAR     29  22  74 SW1       30.26R
6HR MIN TEMP:  29; 6HR MAX TEMP:  35;

FORT STEWART   PTCLDY    28  22  81 CALM      30.26R
6HR MIN TEMP:  28; 6HR MAX TEMP:  35;

STATESBORO     CLEAR     30  22  72 CALM      30.26R
SYLVANIA       SUNNY     28  26  90 CALM      30.27R
CLAXTON        FAIR      29  26  92 CALM      30.26S

...CSRA...CENTRAL AND FAR SOUTHEAST GEORGIA...

CITY           SKY/WX    TMP DP  RH WIND       PRES   REMARKS
THOMSON        CLEAR     29  19  66 CALM      30.25R
AUGUSTA-BUSH   CLEAR     28  15  58 CALM      30.23R
6HR MIN TEMP:  23; 6HR MAX TEMP:  33;

AUGUSTA-DANIEL NOT AVBL
SWAINSBORO     FAIR      30  23  74 CALM      30.26R
VIDALIA        CLEAR     32  23  69 CALM      30.25S
EASTMAN        FAIR      27  24  87 CALM      30.26S
HAZLEHURST     FAIR      33  24  69 S3        30.24S
ALMA           CLEAR     27  24  89 CALM      30.27R
6HR MIN TEMP:  26; 6HR MAX TEMP:  34;

WAYCROSS       PTCLDY    30  28  92 CALM      30.28R
JESUP          FAIR      30  28  93 CALM      30.29R
BAXLEY         FAIR      32  28  86 CALM      30.26S
BRUNSWICK      CLEAR     32  28  86 CALM      30.30R
SAINT SIMONS   CLEAR     36  23  59 W5        30.29R WCI  32
6HR MIN TEMP:  33; 6HR MAX TEMP:  38;


$$

SCZ027-028-034-036>038-045-046-048>050-GAZ119-141-111300-
...LAKE AND SUPPLEMENTAL COASTAL OBSERVATIONS...

STATION/POSITION TIME  TEMP    WIND        PRES    WAVE   SWELL
                       AIR SEA DIR/SP/G            HT/PER HT/PER/DIR
                 (UTC) (F)     (DEG/KT/KT) (MB)    (FT/S) (FT/S/D)
WINYAH BAY       NOT AVBL
LAKE MURRAY      1100   30     290/  3/  6 1021.3R
ACE BASIN NERRS  NOT AVBL
FORT PULASKI     1100   35 49  240/  5/  7 1024.7
SAPELO ISLAND    1100   37     230/  7     1025.0R

$$

ANZ835-935-AMZ111-154-330-350-352-354-370-450-454-472-111300-
...C-MAN AND BUOY OBSERVATIONS...

STATION/POSITION TIME  TEMP    WIND        PRES    WAVE   SWELL
                       AIR SEA DIR/SP/G            HT/PER HT/PER/DIR
                 (UTC) (F)     (DEG/KT/KT) (MB)    (FT/S) (FT/S/D)
BUOY 41004       1150   43 63  300/ 21/ 25 1023.0R   8/ 6   2/15
BUOY 41008       1150   44 52  290/ 14/ 16 1025.5R   2/ 4
FOLLY BEACH CMAN 1200   33     260/  6/  8 1024.8R
CAPERS NEARSHORE 1108   37     300/ 14/ 19 1022.6R
FRIPP NEARSHORE  1100   40     290/ 14/ 17 1023.0R


STATION/POSITION TIME  TEMP    WIND        PRES    WAVE   SWELL
                       AIR SEA DIR/SP/G            HT/PER HT/PER/DIR
                 (UTC) (F)     (DEG/KT/KT) (MB)    (FT/S) (FT/S/D)
5E ST. MARYS GA  1121      55                N/A     2/14   2/ 90/14
FRYING PAN BUOY  1100   39 59  310/ 17/ 25 1021.5R
BUOY 41025       1150   34 71  310/ 23/ 33 1019.9R   7/ 8   2/110/11
CAPE LOOKOUT NC  NOT AVBL
BUOY 41002       1150   53 68  300/ 25/ 31   N/A    14/10   8/270/10
BUOY 41010       1120   60 72              1023.7R
ST AUGUSTINE FL  1200   37 54  260/  4/  4 1027.1R


$$



USA.gov is the U.S. government's official web portal to all federal, state and local government web resources and services.